Regional Weather Roundup
Issued by NWS

Home | Current Version | Previous Version | Text Only | Print | Product List | Glossary On
Versions: 1 2 3 4 5 6 7 8 9 10 11 12 13 14 15 16 17 18 19 20 21 22 23 24 25 26 27 28 29 30 31 32 33 34 35 36 37 38 39 40 41 42 43 44 45 46 47 48 49 50
000
ASUS45 KREV 220910
RWRNV
NEVADA REGIONAL WEATHER ROUNDUP
NATIONAL WEATHER SERVICE RENO NV
200 AM PDT SAT JUL 22 2017

NOTE: "FAIR" INDICATES FEW OR NO CLOUDS BELOW 12,000 FEET WITH NO
SIGNIFICANT WEATHER AND/OR OBSTRUCTIONS TO VISIBILITY.

NVZ001-003-004-221000-
WESTERN NEVADA

CITY           SKY/WX    TMP DP  RH WIND       PRES   REMARKS
RENO           CLEAR     72  38  29 W3        30.13R
CARSON CITY    FAIR      64  37  36 S3        30.15S
MINDEN         FAIR      52  39  62 MISG      30.16R
FALLON         CLEAR     67  31  26 W10       30.05S
LOVELOCK       CLEAR     64  21  19 NE5       30.04R
HAWTHORNE      CLEAR     75  30  19 VRB5      30.07S
$$

NVZ002-CAZ072-073-221000-
NORTHERN AND CENTRAL SIERRA

CITY           SKY/WX    TMP DP  RH WIND       PRES   REMARKS
S. LAKE TAHOE  CLEAR     51  42  71 CALM      30.25F
TRUCKEE        CLEAR     46  37  71 CALM      30.26S
SQUAW VLY 8000   N/A     57  36  44 NE3         N/A
SUSANVILLE     CLEAR     66  37  34 W6        30.12S
BLUE CANYON    CLEAR     68  35  29 NE6       30.18F
MAMMOTH LAKES  FAIR      58  31  35 NW3       30.30S
BRIDGEPORT     FAIR      53  35  50 CALM      30.28S
$$

NVZ030-031-036-221000-
NORTHERN NEVADA

CITY           SKY/WX    TMP DP  RH WIND       PRES   REMARKS
ELKO           CLEAR     59  40  49 W5        30.14S
WINNEMUCCA     CLEAR     74  34  23 NE14G20   30.09S
WENDOVER       CLEAR     78  33  19 W7        30.07R
$$

NVZ035-037-221000-
CENTRAL NEVADA

CITY           SKY/WX    TMP DP  RH WIND       PRES   REMARKS
ELY            CLEAR     59  38  45 E6        30.19S
EUREKA           N/A     58  27  30 S7        30.18R
$$

NVZ013-014-221000-
SOUTH CENTRAL NEVADA

CITY           SKY/WX    TMP DP  RH WIND       PRES   REMARKS
TONOPAH        CLEAR     67  33  28 N6        30.14S
$$

NVZ017-020-022-221000-
SOUTHERN NEVADA

CITY           SKY/WX    TMP DP  RH WIND       PRES   REMARKS
LAS VEGAS      PTCLDY    90  50  25 S6        29.86S
N. LAS VEGAS   CLEAR     89  41  18 NW5       29.86S
NELLIS AFB     PTCLDY    90  48  23 CALM      29.84S
HENDERSON      CLEAR     86  53  32 S8        29.91S
MERCURY        CLEAR     80  30  16 N8        29.96S
$$



USA.gov is the U.S. government's official web portal to all federal, state and local government web resources and services.